Regional Weather Roundup
Issued by NWS Newport/Morehead, NC

Current Version | Previous Version | Text Only | Print | Product List | Glossary On
Versions: 1 2 3 4 5 6 7 8 9 10 11 12 13 14 15 16 17 18 19 20 21 22 23 24 25 26 27 28 29 30 31 32 33 34 35 36 37 38 39 40 41 42 43 44 45 46 47 48 49 50
000
ASUS42 KMHX 201622
RWRMHX
WEATHER ROUNDUP FOR EASTERN NORTH CAROLINA
NATIONAL WEATHER SERVICE NEWPORT/MOREHEAD CITY NC
1200 PM EDT WED AUG 20 2014

NOTE: "FAIR" INDICATES FEW OR NO CLOUDS BELOW 12,000 FEET
WITH NO SIGNIFICANT WEATHER AND/OR OBSTRUCTIONS TO VISIBILITY

NCZ015>017-031-032-045>047-102-103-201700-
NORTH COAST

CITY           SKY/WX    TMP DP  RH WIND       PRES   REMARKS
EDENTON        PTSUNNY   81  71  70 NE3       29.99S
ELIZABETH CITY MOSUNNY   83  72  69 NE6       29.98S
KITTY HAWK     SUNNY     81  72  73 NE3       29.97S
MANTEO         MOSUNNY   81  72  74 NE9       29.98S

$$

NCZ045>047-081-094-103-104-201700-
CENTRAL COAST

CITY           SKY/WX    TMP DP  RH WIND       PRES   REMARKS
FRISCO         LGT RAIN  78  76  93 NE7       29.97R FOG
SWANQUARTER      N/A     86 N/A N/A N2        29.94S

$$

NCZ095-097-098-100-101-201700-
SOUTHERN COAST

CITY           SKY/WX    TMP DP  RH WIND       PRES   REMARKS
BEAUFORT       MOSUNNY   85  73  67 NW7       29.98S
CEDAR ISLAND     N/A     82 N/A N/A NW5       30.03R
JACKSONVILLE   MOSUNNY   85  73  67 N5        29.98F
NEWPORT        NOT AVBL
PINEY ISLAND   PTSUNNY   85  75  72 N9        29.98R
WILMINGTON     MOSUNNY   88  74  63 NW5       29.99S


$$

NCZ011>013-027>030-043-044-078>080-089-090>093-098-201700-
COASTAL PLAIN

CITY           SKY/WX    TMP DP  RH WIND       PRES   REMARKS
AHOSKIE        SUNNY     81  70  69 CALM      30.00S
CLINTON        PTSUNNY   87  76  69 CALM      30.00S
ELIZABETHTOWN  MOSUNNY   88  73  61 NW3       29.99F
GOLDSBORO      MOSUNNY   82  76  82 NE3       29.98F
GREENVILLE     PTSUNNY   81  72  74 NW3       30.02S
HAVELOCK       NOT AVBL
KENANSVILLE    SUNNY     83  72  69 N3        30.00F
KINSTON        PTSUNNY   82  72  69 NW6       30.01R
NEW BERN       MOSUNNY   86  72  62 CALM      29.99F
RICHLANDS      MOSUNNY   84  72  65 N6        29.99S
ROANOKE RAPIDS NOT AVBL
ROCKY MOUNT    PTSUNNY   84  71  65 CALM      30.01S
WASHINGTON     MOSUNNY   82  71  70 N8        29.99F
WHITEVILLE     SUNNY     87  72  59 SE5       29.98F

$$

AMZ130-135-150-152-154-156-158-170-250-252-270-ANZ085-086-088-633-658-670-201700-
MARINE OBSERVATIONS

STATION/POSITION TIME  TEMP    WIND        PRES    WAVE   SWELL
                       AIR SEA DIR/SP/G            HT/PER HT/PER
                 (UTC) (F)     (DEG/KT/KT) (MB)    (FT/S) (FT/S)
CHESAPEAKE LIGHT 1600   75      50/  9/ 11 1016.1
BUOY 44014       1600   77 78   50/ 12/ 12 1014.4    3/ 5   2/ 6
DUCK             1600   77 79   30/  9/ 10 1014.6
2E DUCK          1600                        N/A     3/ 4
OREGON INLET     1600   80 80   30/  8/ 11 1015.0
BUOY 44095       1600      80                N/A     3/ 4
20E OREGON INLET NOT AVBL
HATTERAS CG      1600   78 81   20/ 10/ 12 1015.3
DIAMOND BUOY     1500   78     310/  6/  8 1014.3    2/ 8   2/ 8
CAPE LOOKOUT     1600   82     360/  3/  6 1015.1
BEAUFORT LAB     1600   82 82  340/  5/  7 1014.8
30 SE NEW RIVER  1600   79 82   10/  4/  6 1015.2    3/ 7   3/ 7
5 SE WRIGHTSVILL 1600   78 83  110/  4/  4   N/A
BUOY 41002       1507   82 81  250/ 17/ 21 1017.3    6/ 7   2/10
BUOY 41004       1600   81 83  260/ 10/ 12 1015.7    4/ 6   3/ 6

$$


USA.gov is the U.S. government's official web portal to all federal, state and local government web resources and services.